#timestamp,LO_Frequency,Hit,StdDev 
1511701215.6,286047005.5,N
1511701235.4,286047003.5,N
1511701255.3,286047008.8,N
1511701275.1,286047007.7,N
1511701295.8,286047007.9,Y
1511701315.7,286047003.0,P
1511701335.5,286047000.4,N
1511701355.3,286047002.8,N
1511701375.2,286047000.0,N
1511701395.9,286047000.7,N
1511701415.7,286046998.2,N
1511701435.6,286046996.6,N
1511701455.4,286046996.7,N
1511701475.2,286046998.5,N
1511701495.0,286046996.8,N
1511701495.9,286046996.8,N
1511701515.8,286046997.7,N
1511701535.6,286046993.5,N
1511701555.4,286046998.0,N
1511701575.3,286046995.3,N
1511701595.1,286046997.8,N
1511701615.8,286046998.2,N
1511701635.7,286046998.2,N
1511701655.5,286047004.4,N
1511701675.3,286047003.0,N
1511701695.2,286047001.8,N
1511701715.9,286047004.2,N
1511701735.7,286047005.5,N
1511701755.5,286047006.3,N
1511701775.4,286047006.1,N
1511701795.2,286047006.1,N
1511701815.0,286047006.1,N
1511701815.9,286047006.1,N
1511701835.8,286047005.0,N
1511701855.6,286047005.7,N
1511701875.4,286047004.7,N
1511701895.3,286047007.1,N
1511701915.1,286047009.0,N
1511701916.0,286047009.0,N
1511701935.8,286047004.9,N
1511701955.7,286047002.0,N
1511701975.5,286047000.2,N
1511701995.3,286047002.2,N
1511702015.2,286047000.3,N
1511702035.9,286046996.6,N
1511702055.7,286047001.0,N
1511702075.5,286047000.0,N
1511702095.4,286047002.5,N
1511702115.2,286047003.7,N
1511702135.0,286047003.7,N
1511702135.9,286047003.7,N
1511702155.8,286047002.5,N
1511702175.6,286047003.3,N
1511702195.4,286047005.3,N
1511702215.3,286047002.2,N
1511702235.1,286047002.4,N
1511702255.8,286047002.1,N
1511702275.7,286047004.4,N
1511702295.5,286047007.2,N
1511702315.3,286047005.0,N
1511702335.2,286047006.1,N
1511702355.9,286047006.1,N
1511702375.7,286047005.2,N
1511702395.6,286047004.7,N
1511702415.4,286047004.6,N
1511702435.2,286047005.9,N
1511702455.0,286047001.4,N
1511702456.0,286047001.4,N
1511702475.8,286047001.6,N
1511702495.6,286047001.9,N
1511702515.4,286047002.0,N
1511702535.3,286047004.4,N
1511702555.1,286047002.1,N
1511702575.8,286047002.0,N
1511702595.7,286047001.0,N
1511702615.5,286046998.2,N
1511702635.3,286047000.1,N
1511702655.2,286047000.3,N
1511702675.9,286046997.1,N
1511702695.7,286046992.6,Y
1511702715.6,286046992.6,P
1511702735.4,286046991.2,N
1511702755.2,286046994.7,N
1511702775.1,286046993.5,N
1511702776.0,286046993.5,N
1511702795.8,286046993.4,N
1511702815.6,286046993.7,N
1511702835.5,286046995.3,N
1511702855.3,286046994.2,N
1511702875.1,286046993.7,N
1511702895.8,286046996.2,N
1511702915.7,286046995.2,N
1511702935.5,286046992.8,N
1511702955.3,286046993.1,N
1511702975.2,286046995.0,N
1511702995.0,286046996.8,N
1511702995.9,286046996.8,N
1511703015.7,286046999.4,N
1511703035.6,286046999.6,N
1511703055.4,286046995.0,N
1511703075.2,286046995.1,N
1511703095.1,286046996.4,N
1511703096.0,286046996.4,N
1511703115.8,286046997.2,N
1511703135.6,286047000.4,N
1511703155.5,286047001.7,N
1511703175.3,286047001.4,N
1511703195.1,286047002.7,N
1511703215.8,286046998.2,N
1511703235.7,286047002.7,N
1511703255.5,286047004.8,N
1511703275.3,286047008.8,N
1511703295.2,286047012.0,Y
1511703315.0,286047014.8,P
1511703315.9,286047014.8,N
1511703335.7,286047013.8,N
1511703355.6,286047012.6,N
1511703375.4,286047013.1,N
1511703395.2,286047015.6,N
1511703415.1,286047013.4,N
1511703416.0,286047013.4,N
1511703435.8,286047013.8,N
1511703455.6,286047010.4,N
1511703475.5,286047004.5,N
1511703495.3,286047002.6,N
1511703515.1,286047001.1,N
1511703535.9,286046999.0,N
1511703555.7,286046998.3,N
1511703575.5,286046997.0,N
1511703595.3,286046997.1,N
1511703615.2,286046998.6,N
1511703635.0,286047001.7,N
1511703635.9,286047001.7,N
1511703655.7,286047002.6,N
1511703675.6,286047004.4,N
1511703695.4,286047006.8,N
1511703715.2,286047009.7,N
1511703735.1,286047009.9,N
1511703736.0,286047009.9,N
1511703755.8,286047010.4,N
1511703775.6,286047009.0,N
1511703795.5,286047007.7,N
1511703815.3,286047010.0,N
1511703835.1,286047009.7,N
1511703855.9,286047009.3,N
1511703875.7,286047008.1,N
1511703895.5,286047008.3,N
1511703915.4,286047010.7,N
1511703935.2,286047006.7,N
1511703955.0,286047003.3,N
1511703955.9,286047003.3,N
1511703975.8,286047005.1,N
1511703995.6,286047006.4,N
1511704015.4,286047004.5,N
1511704035.2,286047004.1,N
1511704055.1,286047003.7,N
1511704056.0,286047003.7,N
1511704075.8,286047002.6,N
1511704095.6,286047002.8,N
1511704115.5,286047003.3,N
1511704135.3,286047001.8,N
1511704155.1,286047003.8,N
1511704175.9,286047006.3,N
1511704195.7,286047004.8,N
1511704215.5,286047003.2,N
1511704235.4,286047004.1,N
1511704255.2,286047004.0,N
1511704275.0,286047002.1,N
1511704275.9,286047002.1,N
1511704295.8,286047004.3,N
1511704315.6,286047003.7,N
1511704335.4,286046999.9,N
1511704355.3,286047002.3,N
1511704375.1,286047000.1,N
1511704376.0,286047000.1,N
1511704395.8,286047000.6,N
1511704415.6,286046999.7,N
1511704435.5,286047000.6,N
1511704455.3,286046998.0,N
1511704475.2,286046990.9,Y
1511704495.9,286046988.9,P
1511704515.7,286046993.4,N
1511704535.5,286046996.3,N
1511704555.4,286046991.8,N
1511704575.2,286046996.2,N
1511704595.0,286046992.7,N
1511704595.9,286046992.7,N
1511704615.8,286046990.6,N
1511704635.6,286046988.7,N
1511704655.4,286046987.8,Y
1511704675.3,286046992.3,P
1511704695.1,286046993.5,P
1511704715.8,286046997.6,P
1511704735.7,286046994.1,N
1511704755.5,286046993.4,Y
1511704775.3,286046998.6,P
1511704795.2,286046999.3,N
